Regional Weather Roundup
Issued by NWS Mobile, AL

Home | Current Version | Previous Version | Text Only | Print | Product List | Glossary On
Versions: 1 2 3 4 5 6 7 8 9 10 11 12 13 14 15 16 17 18 19 20 21 22 23 24 25 26 27 28 29 30 31 32 33 34 35 36 37 38 39 40 41 42 43 44 45 46 47 48 49 50
000
ASUS44 KMOB 070216
RWRMOB
REGIONAL WEATHER ROUNDUP
NATIONAL WEATHER SERVICE MOBILE AL
900 PM CDT MON JUL 06 2015

ALZ061>064-070300-
COASTAL ALABAMA


CITY           SKY/WX    TMP DP  RH WIND       PRES   REMARKS
MOBILE REG APT PTCLDY    79  75  87 S7        30.10S
BROOKLEY FIELD CLEAR     80  74  81 CALM      30.10S
GULF SHORES    CLEAR     76  72  86 CALM      30.09S

$$

ALZ051>060-070300-
INTERIOR SOUTHWEST AND SOUTH CENTRAL ALABAMA


CITY           SKY/WX    TMP DP  RH WIND       PRES   REMARKS
ANDALUSIA/OPP  CLEAR     80  75  84 CALM      30.09S
EVERGREEN      CLEAR     77  75  93 CALM      30.10R
FLORALA        CLEAR     77  73  87 CALM      30.11F
GREENVILLE     FAIR      78  73  84 CALM      30.10R

$$

FLZ001>006-070300-
WESTERN FLORIDA PANHANDLE


CITY           SKY/WX    TMP DP  RH WIND       PRES   REMARKS
CRESTVIEW      PTCLDY    79  75  87 CALM      30.11R
DESTIN         CLEAR     83  74  74 VRB5      30.09S
DUKE FIELD     PTCLDY    82  71  69 SW6       30.10R
MARY ESTHER    CLEAR     83  72  69 SW3       30.08S
MILTON         PTCLDY    82  73  74 CALM      30.09S
PENSACOLA      CLEAR     80  66  62 SW3       30.09S
NAS PENSACOLA  PTCLDY    76  67  73 CALM      30.09S
VALPARAISO     PTCLDY    82  72  72 W1        30.09S

$$

...MARINE OBSERVATIONS...

STATION/POSITION TIME  SKY/WX   TEMP    WIND        PRES    VSBY
                                AIR SEA DIR/SP/G
                 (UTC)          (F)     (DEG/KT/KT) (MB)    (MI)
PASCAGOULA       0100            83     170/  9/ 10 1018.7F
PETIT BOIS ISL   0100            85     160/  7/  9 1019.2F
E DAUPHIN ISLAND 0200            83     170/  7/  8 1018.5S
USCG MOBILE BAY  0100            82 82  230/  3/  5 1017.8F
STATE DOCKS      0100            84 85              1018.6F
MEAHER PARK      0200            83     170/  8     1018.3S
FORT MORGAN      0100            82     190/  9/ 10 1018.5F
12 S ORANGE BCH  0150            85 86  180/  6/  8 1018.5F
WVE H/P(F/S)=  1/ 6

PENSACOLA BAY    0100            86 85  230/  5/  7 1019.2F
64 S DAUPHIN ISL 0150            84 87  150/ 10/ 12 1019.2F
WVE H/P(F/S)=  1/ 5

67 S FORT MORGAN 0130            83     160/  8     1019.3S
115 SE PENSACOLA 0150            83 85  330/  4/  4 1020.2R
WVE H/P(F/S)=  2/ 7

MID GULF/42001   0150            85 86  120/ 12/ 14 1019.1S
WVE H/P(F/S)=  3/ 7

EAST GULF/42003  0150            85 86   70/ 10/ 12 1019.6R
WVE H/P(F/S)=  3/ 6


$$

...NEARBY LOCATIONS

CITY           SKY/WX    TMP DP  RH WIND       PRES   REMARKS
GULFPORT       CLEAR     82  77  84 S6        30.06F
BILOXI         CLEAR     82  77  83 S7        30.07F
PASCAGOULA     CLEAR     80  77  90 S5        30.08F
HATTIESBURG    CLEAR     81  76  84 CALM      30.07S
LAUREL         CLEAR     77  73  88 S3        30.08S
MERIDIAN       CLEAR     78  74  87 CALM      30.07R
MERIDIAN NAS   CLEAR     79  73  82 SE3       30.07R
MONTGOMERY     CLEAR     79  74  84 S3        30.09S
MAXWELL AFB    CLEAR     78  75  90 CALM      30.08S
TROY           CLEAR     76  74  93 CALM      30.11S
FORT RUCKER    CLEAR     77  73  87 CALM      30.09S
DALEVILLE      CLEAR     80  72  76 N1        30.10S
DOTHAN         CLEAR     78  75  90 NW3       30.13F

$$

...OTHER SURROUNDING LOCATIONS...

CITY           SKY/WX    TMP DP  RH WIND       PRES   REMARKS
BIRMINGHAM     CLEAR     81  71  71 S6        30.10F
TUSCALOOSA     CLEAR     78  73  84 CALM      30.07S
COLUMBUS GA    CLEAR     78  70  76 CALM      30.10S
PANAMA CITY    NOT AVBL
TALLAHASSEE    PTCLDY    81  74  79 CALM      30.11R
BATON ROUGE    CLEAR     83  74  74 S6        30.03F
NEW ORLEANS    PTCLDY    83  75  77 S8        30.04F
SLIDELL        PTCLDY    82  79  90 E5        30.05F
JACKSON        PTCLDY    80  74  81 SE8       30.03F
MCCOMB         PTCLDY    80  77  90 S6        30.06R

$$

...SURROUNDING MARINE OBSERVATIONS...

STATION/POSITION TIME  SKY/WX   TEMP    WIND        PRES    VSBY
                                AIR SEA DIR/SP/G
                 (UTC)          (F)     (DEG/KT/KT) (MB)    (MI)
WAVELAND         0100            84 83  160/  9/ 12 1018.6F
PASCAGOULA RGN A 0100            84     180/  6/  9 1018.4F
PASCAGOULA PORT  0100               86                N/A
GRAND ISLE       0100            85 87  180/  5/ 10 1018.4F
SOUTHWEST PASS   0200            84     150/ 11/ 11 1018.5F
PILOT STATION E  0100            84 83  170/  7/  8 1019.1F
SHELL BEACH      0100            84 85  150/  6/  7 1017.7F
PANAMA CITY      0100            82 84  260/  5/  6 1018.8F
APALACHICOLA     0100            81 86  300/  2/  4 1019.1F
TYNDALL TOWER C  0200            81     270/  5/  6 1019.7R
S APLCHCLA/42036 0150            83 85   30/  4/  6 1020.5R
WVE H/P(F/S)=  2/ 4


$$




USA.gov is the U.S. government's official web portal to all federal, state and local government web resources and services.